パンスターズ-クリステンセン彗星

443P/PanSTARRS-Christensen (2014)

English version
Home page
Updated on May 29, 2022

---------------------------------------------------------------------

・ プロフィール

符号 443P/2015 PO210
発見日 2015年8月10日
発見光度 21.7等
発見者 Pan-STARRS 1 telescope (Haleakala)

・ 軌道要素

Epoch 2014 May 23.0 TT = JDT 2456800.5                                          
T 2014 May 10.59679 TT                                  Rudenko                 
q   2.9624675            (2000.0)            P               Q                  
n   0.11722639     Peri.  144.76069     -0.24671227     +0.91423500             
a   4.1347804      Node   109.02647     -0.94874655     -0.16026236             
e   0.2835248      Incl.   19.87620     -0.19751720     -0.37214291             
P   8.41                                                                        
From 72 observations 2014 May 26-2022 Apr. 18, mean residual 0".3.              

・ 光度変化

        m1 = 13.0 + 5 logΔ + 10.0 log r

---------------------------------------------------------------------

軌道要素はM.P.E.C. 2022-H49に掲載されたものです。
光度グラフはComet for Windowsで作成したものです。

---------------------------------------------------------------------

Copyright(C) Seiichi Yoshida (comet@aerith.net). All rights reserved.